DAL9096 KILM-KFLL

Flight info

Callsign DAL9096
Flight time 1h 43m
Altitude 38000
Route ELMSZ Q97 PRMUS CUUDA3
Aircraft A320/M-SDE3FGHIRWY/LB1

Departure

Time 2026-05-08 02:08
Airport Wilmington International Airport (KILM)

Arrival

Time 2026-05-08 03:51
Airport Fort Lauderdale Hollywood International Airport (KFLL)
Time Latitude Longitude Altitude Speed Heading
2026-05-08 01:23 34.26597 -77.90911 37 ft 0 kts 12°
2026-05-08 01:26 34.26596 -77.90911 37 ft 0 kts 12°
2026-05-08 01:36 34.26595 -77.90911 37 ft 0 kts 12°
2026-05-08 01:49 34.26594 -77.90911 27 ft 0 kts 12°
2026-05-08 01:53 34.26592 -77.90912 36 ft 2 kts 13°
2026-05-08 01:53 34.26569 -77.90923 34 ft 4 kts 44°
2026-05-08 01:54 34.26557 -77.90949 36 ft 4 kts 88°
2026-05-08 01:54 34.26562 -77.90973 36 ft 1 kts 135°
2026-05-08 01:54 34.26566 -77.90977 32 ft 0 kts 135°
2026-05-08 01:59 34.26561 -77.90972 36 ft 5 kts 135°
2026-05-08 02:00 34.26539 -77.90934 34 ft 9 kts 106°
2026-05-08 02:00 34.26577 -77.90851 35 ft 13 kts 51°
2026-05-08 02:00 34.26630 -77.90748 34 ft 17 kts 65°
2026-05-08 02:00 34.26710 -77.90634 34 ft 18 kts 46°
2026-05-08 02:01 34.26798 -77.90507 31 ft 22 kts 52°
2026-05-08 02:01 34.26899 -77.90355 28 ft 24 kts 52°
2026-05-08 02:01 34.26991 -77.90214 28 ft 22 kts 50°
2026-05-08 02:01 34.27083 -77.90078 30 ft 20 kts 51°
2026-05-08 02:02 34.27176 -77.89951 30 ft 21 kts 49°
2026-05-08 02:02 34.27272 -77.89814 32 ft 21 kts 50°
2026-05-08 02:02 34.27367 -77.89693 30 ft 19 kts 27°
2026-05-08 02:02 34.27477 -77.89636 29 ft 18 kts 47°
2026-05-08 02:03 34.27567 -77.89511 28 ft 21 kts 47°
2026-05-08 02:03 34.27670 -77.89369 29 ft 23 kts 49°
2026-05-08 02:03 34.27758 -77.89239 29 ft 11 kts 66°
2026-05-08 02:03 34.27740 -77.89179 28 ft 11 kts 132°
2026-05-08 02:04 34.27703 -77.89140 27 ft 0 kts 139°
2026-05-08 02:07 34.27684 -77.89120 26 ft 12 kts 139°
2026-05-08 02:07 34.27638 -77.89096 30 ft 3 kts 192°
2026-05-08 02:07 34.27607 -77.89116 27 ft 0 kts 222°
2026-05-08 02:08 34.27488 -77.89270 26 ft 71 kts 228°
2026-05-08 02:08 34.26945 -77.90005 49 ft 157 kts 229°
2026-05-08 02:08 34.26210 -77.90949 979 ft 144 kts 228°
2026-05-08 02:08 34.25605 -77.91717 1576 ft 122 kts 234°
2026-05-08 02:09 34.24900 -77.92675 1260 ft 184 kts 231°
2026-05-08 02:09 34.24087 -77.93828 2091 ft 173 kts 237°
2026-05-08 02:09 34.23340 -77.94916 2980 ft 167 kts 236°
2026-05-08 02:09 34.22566 -77.95958 3840 ft 164 kts 234°
2026-05-08 02:10 34.21798 -77.96965 4626 ft 162 kts 234°
2026-05-08 02:10 34.21006 -77.97990 5404 ft 173 kts 234°
2026-05-08 02:10 34.20257 -77.98952 6433 ft 147 kts 236°
2026-05-08 02:10 34.19538 -77.99988 6381 ft 178 kts 238°
2026-05-08 02:11 34.18744 -78.01176 6830 ft 172 kts 238°
2026-05-08 02:11 34.18120 -78.02325 7497 ft 160 kts 246°
2026-05-08 02:11 34.17623 -78.03540 7868 ft 162 kts 249°
2026-05-08 02:11 34.17212 -78.04785 8343 ft 158 kts 252°
2026-05-08 02:12 34.16800 -78.06004 8798 ft 157 kts 249°
2026-05-08 02:12 34.16322 -78.07238 9070 ft 170 kts 246°
2026-05-08 02:12 34.15775 -78.08498 9813 ft 165 kts 244°
2026-05-08 02:12 34.15238 -78.09675 10538 ft 165 kts 248°
2026-05-08 02:13 34.14780 -78.11049 10827 ft 188 kts 251°
2026-05-08 02:13 34.14287 -78.12626 11158 ft 213 kts 251°
2026-05-08 02:13 34.13714 -78.14384 11532 ft 238 kts 250°
2026-05-08 02:13 34.13045 -78.16323 11886 ft 262 kts 249°
2026-05-08 02:14 34.12283 -78.18437 12200 ft 287 kts 249°
2026-05-08 02:14 34.11434 -78.20699 12697 ft 302 kts 248°
2026-05-08 02:14 34.10539 -78.23020 13483 ft 307 kts 248°
2026-05-08 02:14 34.09619 -78.25367 14277 ft 310 kts 248°
2026-05-08 02:15 34.08701 -78.27688 15094 ft 310 kts 248°
2026-05-08 02:15 34.07768 -78.30034 15943 ft 310 kts 249°
2026-05-08 02:15 34.06835 -78.32377 16802 ft 309 kts 249°
2026-05-08 02:15 34.05905 -78.34716 17641 ft 309 kts 249°
2026-05-08 02:16 34.04978 -78.37048 18424 ft 309 kts 249°
2026-05-08 02:16 34.04048 -78.39394 19079 ft 311 kts 249°
2026-05-08 02:16 34.03112 -78.41760 19699 ft 314 kts 250°
2026-05-08 02:16 34.02168 -78.44147 20312 ft 317 kts 250°
2026-05-08 02:17 34.01212 -78.46559 20920 ft 321 kts 250°
2026-05-08 02:17 34.00245 -78.48997 21525 ft 324 kts 250°
2026-05-08 02:17 33.99265 -78.51463 22133 ft 328 kts 250°
2026-05-08 02:17 33.98276 -78.53951 22710 ft 331 kts 250°
2026-05-08 02:18 33.97277 -78.56463 23273 ft 334 kts 250°
2026-05-08 02:18 33.96267 -78.59002 23763 ft 338 kts 250°
2026-05-08 02:18 33.95248 -78.61562 24251 ft 340 kts 250°
2026-05-08 02:18 33.94223 -78.64138 24685 ft 343 kts 250°
2026-05-08 02:19 33.93185 -78.66739 25150 ft 346 kts 250°
2026-05-08 02:19 33.92138 -78.69359 25628 ft 348 kts 250°
2026-05-08 02:19 33.91085 -78.71990 26114 ft 350 kts 250°
2026-05-08 02:19 33.90025 -78.74640 26578 ft 352 kts 250°
2026-05-08 02:20 33.88960 -78.77300 27032 ft 354 kts 250°
2026-05-08 02:20 33.87886 -78.79977 27488 ft 356 kts 250°
2026-05-08 02:20 33.86807 -78.82666 27930 ft 358 kts 250°
2026-05-08 02:20 33.85721 -78.85373 28359 ft 360 kts 250°
2026-05-08 02:21 33.84641 -78.88063 28771 ft 363 kts 250°
2026-05-08 02:21 33.83540 -78.90802 29175 ft 365 kts 250°
2026-05-08 02:21 33.82416 -78.93591 29569 ft 367 kts 250°
2026-05-08 02:21 33.81314 -78.96323 29951 ft 369 kts 250°
2026-05-08 02:22 33.80193 -78.99108 30269 ft 371 kts 250°
2026-05-08 02:22 33.79065 -79.01897 30590 ft 372 kts 249°
2026-05-08 02:22 33.77930 -79.04697 30904 ft 373 kts 249°
2026-05-08 02:22 33.76796 -79.07501 31220 ft 373 kts 249°
2026-05-08 02:23 33.75667 -79.10296 31620 ft 370 kts 249°
2026-05-08 02:23 33.74545 -79.13070 32048 ft 368 kts 249°
2026-05-08 02:23 33.73431 -79.15820 32423 ft 365 kts 249°
2026-05-08 02:23 33.72319 -79.18557 32810 ft 364 kts 249°
2026-05-08 02:24 33.71211 -79.21281 33214 ft 362 kts 249°
2026-05-08 02:24 33.70111 -79.23987 33637 ft 359 kts 249°
2026-05-08 02:24 33.69017 -79.26673 34038 ft 357 kts 249°
2026-05-08 02:24 33.67705 -79.29224 34398 ft 364 kts 240°
2026-05-08 02:25 33.65931 -79.31438 34735 ft 375 kts 230°
2026-05-08 02:25 33.63796 -79.33312 35070 ft 380 kts 226°
2026-05-08 02:25 33.61635 -79.35140 35396 ft 380 kts 226°
2026-05-08 02:25 33.59475 -79.36963 35716 ft 379 kts 226°
2026-05-08 02:26 33.57321 -79.38780 36026 ft 378 kts 226°
2026-05-08 02:26 33.55174 -79.40595 36324 ft 377 kts 227°
2026-05-08 02:26 33.53029 -79.42413 36611 ft 377 kts 227°
2026-05-08 02:26 33.50888 -79.44228 36921 ft 376 kts 227°
2026-05-08 02:27 33.48761 -79.46037 37143 ft 375 kts 227°
2026-05-08 02:27 33.46633 -79.47847 37394 ft 375 kts 227°
2026-05-08 02:27 33.44501 -79.49650 37660 ft 375 kts 226°
2026-05-08 02:27 33.42364 -79.51453 37869 ft 375 kts 226°
2026-05-08 02:28 33.38105 -79.55043 37914 ft 374 kts 227°
2026-05-08 02:28 33.33884 -79.58598 37914 ft 373 kts 227°
2026-05-08 02:29 33.29633 -79.62180 37915 ft 373 kts 227°
2026-05-08 02:29 33.25393 -79.65759 37908 ft 373 kts 227°
2026-05-08 02:30 33.21137 -79.69344 37917 ft 375 kts 226°
2026-05-08 02:30 33.16869 -79.72924 37932 ft 375 kts 226°
2026-05-08 02:31 33.12596 -79.76502 37938 ft 375 kts 226°
2026-05-08 02:31 33.08321 -79.80078 37948 ft 375 kts 226°
2026-05-08 02:32 33.04052 -79.83648 37954 ft 375 kts 226°
2026-05-08 02:32 33.00500 -79.86613 37954 ft 375 kts 226°
2026-05-08 02:33 32.96224 -79.90181 37957 ft 375 kts 226°
2026-05-08 02:33 32.91948 -79.93742 37958 ft 375 kts 226°
2026-05-08 02:34 32.87672 -79.97297 37956 ft 375 kts 226°
2026-05-08 02:34 32.83395 -80.00852 37956 ft 375 kts 226°
2026-05-08 02:35 32.79120 -80.04410 37963 ft 375 kts 226°
2026-05-08 02:35 32.74846 -80.07959 37915 ft 375 kts 226°
2026-05-08 02:36 32.70590 -80.11491 37928 ft 376 kts 226°
2026-05-08 02:36 32.66292 -80.15046 37934 ft 376 kts 226°
2026-05-08 02:37 32.61990 -80.18595 37945 ft 376 kts 226°
2026-05-08 02:37 32.57692 -80.22137 37950 ft 376 kts 226°
2026-05-08 02:38 32.53399 -80.25684 37952 ft 376 kts 226°
2026-05-08 02:38 32.48841 -80.28883 37914 ft 385 kts 220°
2026-05-08 02:39 32.44111 -80.31872 37930 ft 386 kts 220°
2026-05-08 02:39 32.39401 -80.34838 37936 ft 386 kts 220°
2026-05-08 02:40 32.34656 -80.37830 37941 ft 386 kts 220°
2026-05-08 02:40 32.29912 -80.40825 37949 ft 386 kts 220°
2026-05-08 02:41 32.25172 -80.43813 37923 ft 386 kts 220°
2026-05-08 02:41 32.20422 -80.46811 37928 ft 387 kts 220°
2026-05-08 02:42 32.15665 -80.49809 37935 ft 387 kts 219°
2026-05-08 02:42 32.10921 -80.52783 37940 ft 388 kts 219°
2026-05-08 02:43 32.06154 -80.55775 37930 ft 388 kts 219°
2026-05-08 02:43 32.01387 -80.58769 37938 ft 388 kts 219°
2026-05-08 02:44 31.96610 -80.61760 37931 ft 392 kts 219°
2026-05-08 02:44 31.91783 -80.64779 37946 ft 393 kts 219°
2026-05-08 02:45 31.86972 -80.67778 37945 ft 393 kts 219°
2026-05-08 02:45 31.82127 -80.70792 37950 ft 393 kts 219°
2026-05-08 02:46 31.77290 -80.73810 37955 ft 393 kts 219°
2026-05-08 02:46 31.72443 -80.76828 37921 ft 394 kts 218°
2026-05-08 02:47 31.67608 -80.79832 37930 ft 396 kts 218°
2026-05-08 02:47 31.62723 -80.82863 37945 ft 397 kts 218°
2026-05-08 02:48 31.57832 -80.85894 37948 ft 398 kts 218°
2026-05-08 02:48 31.52932 -80.88928 37953 ft 398 kts 218°
2026-05-08 02:49 31.48026 -80.91964 37954 ft 399 kts 218°
2026-05-08 02:49 31.43099 -80.95012 37957 ft 402 kts 218°
2026-05-08 02:50 31.38162 -80.98053 37967 ft 403 kts 218°
2026-05-08 02:50 31.33200 -81.01104 37972 ft 403 kts 218°
2026-05-08 02:51 31.28234 -81.04158 37983 ft 404 kts 217°
2026-05-08 02:51 31.25580 -81.05407 37983 ft 417 kts 207°
2026-05-08 02:51 31.22684 -81.06100 37981 ft 433 kts 197°
2026-05-08 02:52 31.16595 -81.06284 37952 ft 442 kts 192°
2026-05-08 02:52 31.10424 -81.06402 37961 ft 443 kts 192°
2026-05-08 02:53 31.04240 -81.06545 37965 ft 444 kts 192°
2026-05-08 02:53 30.98092 -81.06678 37970 ft 445 kts 192°
2026-05-08 02:54 30.91901 -81.06804 37940 ft 445 kts 192°
2026-05-08 02:54 30.85701 -81.06933 37954 ft 446 kts 192°
2026-05-08 02:55 30.76388 -81.07123 37969 ft 447 kts 192°
2026-05-08 02:56 30.70161 -81.07241 37978 ft 447 kts 192°
2026-05-08 02:56 30.63941 -81.07371 37938 ft 447 kts 191°
2026-05-08 02:57 30.57731 -81.07602 37953 ft 446 kts 193°
2026-05-08 02:57 30.51571 -81.08012 37963 ft 445 kts 194°
2026-05-08 02:58 30.45377 -81.08443 37975 ft 446 kts 193°
2026-05-08 02:58 30.39169 -81.08827 37985 ft 447 kts 193°
2026-05-08 02:59 30.32943 -81.09185 37987 ft 447 kts 193°
2026-05-08 02:59 30.26721 -81.09553 37989 ft 447 kts 193°
2026-05-08 03:00 30.20507 -81.09926 37998 ft 448 kts 193°
2026-05-08 03:00 30.14283 -81.10301 38004 ft 448 kts 193°
2026-05-08 03:01 30.08053 -81.10676 37983 ft 448 kts 193°
2026-05-08 03:01 30.01827 -81.11051 37996 ft 448 kts 193°
2026-05-08 03:02 29.95633 -81.11425 38026 ft 448 kts 193°
2026-05-08 03:02 29.89398 -81.11800 38022 ft 449 kts 193°
2026-05-08 03:03 29.83104 -81.11857 38021 ft 461 kts 182°
2026-05-08 03:03 29.79917 -81.11129 37994 ft 473 kts 172°
2026-05-08 03:03 29.76783 -81.09780 38006 ft 482 kts 165°
2026-05-08 03:04 29.70661 -81.06749 38013 ft 482 kts 165°
2026-05-08 03:04 29.64489 -81.03722 38022 ft 482 kts 165°
2026-05-08 03:05 29.58317 -81.00713 38017 ft 482 kts 165°
2026-05-08 03:05 29.52146 -80.97699 38027 ft 481 kts 165°
2026-05-08 03:06 29.46014 -80.94705 38007 ft 480 kts 165°
2026-05-08 03:06 29.39876 -80.91718 38008 ft 479 kts 165°
2026-05-08 03:07 29.33743 -80.88738 38016 ft 478 kts 165°
2026-05-08 03:07 29.27621 -80.85764 38027 ft 478 kts 165°
2026-05-08 03:08 29.21484 -80.82782 37984 ft 478 kts 164°
2026-05-08 03:08 29.15362 -80.79810 38002 ft 478 kts 164°
2026-05-08 03:09 29.09233 -80.76840 38007 ft 478 kts 164°
2026-05-08 03:09 29.03109 -80.73884 38018 ft 478 kts 164°
2026-05-08 03:10 28.96980 -80.70927 38017 ft 478 kts 165°
2026-05-08 03:10 28.90824 -80.68086 37987 ft 476 kts 166°
2026-05-08 03:11 28.84643 -80.65379 38009 ft 475 kts 166°
2026-05-08 03:11 28.78471 -80.62665 38009 ft 476 kts 166°
2026-05-08 03:12 28.72307 -80.59908 38010 ft 476 kts 165°
2026-05-08 03:12 28.66190 -80.57164 38000 ft 475 kts 165°
2026-05-08 03:13 28.60030 -80.54415 37981 ft 475 kts 165°
2026-05-08 03:13 28.53878 -80.51689 37982 ft 475 kts 165°
2026-05-08 03:14 28.47714 -80.48966 37987 ft 474 kts 165°
2026-05-08 03:14 28.41566 -80.46236 37990 ft 474 kts 165°
2026-05-08 03:15 28.35418 -80.43507 37997 ft 474 kts 165°
2026-05-08 03:15 28.29264 -80.40788 37987 ft 474 kts 165°
2026-05-08 03:16 28.23114 -80.38074 37998 ft 474 kts 165°
2026-05-08 03:16 28.18006 -80.35813 38007 ft 474 kts 165°
2026-05-08 03:17 28.11850 -80.33088 38018 ft 474 kts 165°
2026-05-08 03:17 28.05680 -80.30448 38034 ft 472 kts 166°
2026-05-08 03:18 27.99472 -80.28049 38014 ft 471 kts 167°
2026-05-08 03:18 27.93290 -80.25726 38031 ft 471 kts 167°
2026-05-08 03:19 27.87093 -80.23330 38036 ft 471 kts 166°
2026-05-08 03:19 27.80887 -80.20888 38039 ft 471 kts 166°
2026-05-08 03:20 27.74691 -80.18466 38040 ft 470 kts 166°
2026-05-08 03:20 27.68491 -80.16057 37408 ft 471 kts 166°
2026-05-08 03:20 27.65399 -80.14855 36172 ft 471 kts 166°
2026-05-08 03:21 27.62296 -80.13650 34855 ft 473 kts 166°
2026-05-08 03:21 27.59171 -80.12420 33654 ft 477 kts 166°
2026-05-08 03:21 27.56033 -80.11145 32595 ft 483 kts 165°
2026-05-08 03:21 27.52922 -80.09849 31974 ft 479 kts 165°
2026-05-08 03:22 27.49812 -80.08538 31318 ft 476 kts 165°
2026-05-08 03:22 27.46719 -80.07238 30659 ft 473 kts 165°
2026-05-08 03:22 27.43640 -80.05956 29982 ft 470 kts 165°
2026-05-08 03:22 27.40574 -80.04688 29290 ft 466 kts 165°
2026-05-08 03:23 27.37535 -80.03467 28658 ft 460 kts 167°
2026-05-08 03:23 27.34494 -80.02399 28038 ft 454 kts 169°
2026-05-08 03:23 27.31462 -80.01468 27422 ft 449 kts 171°
2026-05-08 03:23 27.28444 -80.00613 26814 ft 445 kts 172°
2026-05-08 03:24 27.25451 -79.99781 26213 ft 442 kts 171°
2026-05-08 03:24 27.22486 -79.98873 25619 ft 441 kts 169°
2026-05-08 03:24 27.19563 -79.97869 25044 ft 439 kts 168°
2026-05-08 03:24 27.16667 -79.96802 24488 ft 436 kts 167°
2026-05-08 03:25 27.13799 -79.95714 23932 ft 434 kts 166°
2026-05-08 03:25 27.10947 -79.94632 23358 ft 431 kts 166°
2026-05-08 03:25 27.08118 -79.93574 22848 ft 426 kts 166°
2026-05-08 03:25 27.05319 -79.92532 22347 ft 422 kts 166°
2026-05-08 03:26 27.02552 -79.91453 21845 ft 419 kts 165°
2026-05-08 03:26 26.99823 -79.90348 21328 ft 416 kts 164°
2026-05-08 03:26 26.97117 -79.89232 20815 ft 413 kts 163°
2026-05-08 03:26 26.94433 -79.88122 20353 ft 409 kts 163°
2026-05-08 03:27 26.91766 -79.87026 19980 ft 403 kts 163°
2026-05-08 03:27 26.89169 -79.85966 19696 ft 394 kts 164°
2026-05-08 03:27 26.86614 -79.84934 19148 ft 386 kts 164°
2026-05-08 03:27 26.84100 -79.83926 18355 ft 381 kts 164°
2026-05-08 03:28 26.81619 -79.82934 17589 ft 374 kts 163°
2026-05-08 03:28 26.79210 -79.81968 17082 ft 365 kts 163°
2026-05-08 03:28 26.76851 -79.81025 16600 ft 364 kts 163°
2026-05-08 03:28 26.74435 -79.80060 16102 ft 364 kts 163°
2026-05-08 03:29 26.72040 -79.79271 15671 ft 361 kts 173°
2026-05-08 03:29 26.69589 -79.79079 15478 ft 345 kts 185°
2026-05-08 03:29 26.67253 -79.79438 14810 ft 335 kts 198°
2026-05-08 03:29 26.65074 -79.80280 14242 ft 326 kts 203°
2026-05-08 03:30 26.60833 -79.82025 13304 ft 326 kts 202°
2026-05-08 03:30 26.56576 -79.83761 12364 ft 325 kts 202°
2026-05-08 03:31 26.52480 -79.85538 11882 ft 299 kts 205°
2026-05-08 03:31 26.48784 -79.87302 10899 ft 283 kts 204°
2026-05-08 03:32 26.46980 -79.88170 10302 ft 281 kts 204°
2026-05-08 03:32 26.45192 -79.89026 9727 ft 279 kts 203°
2026-05-08 03:32 26.43434 -79.89862 9258 ft 278 kts 203°
2026-05-08 03:32 26.41638 -79.90712 8828 ft 280 kts 203°
2026-05-08 03:33 26.39842 -79.91555 8381 ft 280 kts 203°
2026-05-08 03:33 26.38061 -79.92438 7945 ft 279 kts 209°
2026-05-08 03:33 26.36403 -79.93509 7837 ft 273 kts 210°
2026-05-08 03:33 26.34751 -79.94568 7778 ft 274 kts 210°
2026-05-08 03:34 26.33089 -79.95631 7722 ft 274 kts 210°
2026-05-08 03:34 26.31434 -79.96691 7656 ft 274 kts 210°
2026-05-08 03:34 26.29805 -79.97734 7581 ft 274 kts 210°
2026-05-08 03:34 26.28132 -79.98808 7495 ft 274 kts 210°
2026-05-08 03:35 26.26482 -79.99867 7414 ft 273 kts 210°
2026-05-08 03:35 26.24855 -80.00912 7330 ft 273 kts 210°
2026-05-08 03:35 26.23210 -80.01968 7241 ft 273 kts 210°
2026-05-08 03:35 26.21320 -80.03181 7142 ft 273 kts 210°
2026-05-08 03:36 26.19709 -80.04282 7059 ft 271 kts 217°
2026-05-08 03:36 26.18354 -80.05740 6977 ft 271 kts 231°
2026-05-08 03:36 26.17380 -80.07536 6886 ft 272 kts 246°
2026-05-08 03:36 26.16759 -80.09521 6809 ft 272 kts 251°
2026-05-08 03:37 26.16164 -80.11520 6725 ft 271 kts 251°
2026-05-08 03:37 26.15565 -80.13516 6643 ft 271 kts 251°
2026-05-08 03:37 26.15096 -80.15545 6553 ft 271 kts 262°
2026-05-08 03:37 26.15025 -80.17640 6472 ft 270 kts 270°
2026-05-08 03:38 26.15039 -80.19671 6366 ft 260 kts 269°
2026-05-08 03:38 26.15049 -80.21635 6199 ft 249 kts 269°
2026-05-08 03:38 26.15057 -80.23533 6118 ft 245 kts 269°
2026-05-08 03:38 26.15064 -80.25431 6066 ft 246 kts 269°
2026-05-08 03:39 26.15084 -80.27331 6013 ft 245 kts 270°
2026-05-08 03:39 26.15103 -80.29230 5958 ft 245 kts 269°
2026-05-08 03:39 26.15168 -80.31125 5899 ft 245 kts 281°
2026-05-08 03:39 26.15720 -80.32918 5857 ft 246 kts 292°
2026-05-08 03:40 26.16409 -80.34664 5803 ft 246 kts 294°
2026-05-08 03:40 26.17111 -80.36403 5751 ft 246 kts 294°
2026-05-08 03:40 26.17574 -80.37552 5723 ft 245 kts 292°
2026-05-08 03:40 26.17900 -80.39361 5675 ft 233 kts 266°
2026-05-08 03:41 26.17717 -80.41078 5674 ft 216 kts 260°
2026-05-08 03:41 26.17474 -80.42704 5615 ft 211 kts 260°
2026-05-08 03:41 26.17224 -80.44310 5560 ft 210 kts 259°
2026-05-08 03:41 26.16888 -80.46435 5492 ft 210 kts 259°
2026-05-08 03:42 26.16715 -80.47520 5462 ft 210 kts 259°
2026-05-08 03:42 26.16458 -80.49122 5416 ft 210 kts 259°
2026-05-08 03:42 26.16199 -80.50725 5365 ft 210 kts 259°
2026-05-08 03:42 26.15938 -80.52323 5315 ft 210 kts 259°
2026-05-08 03:43 26.15361 -80.53797 5265 ft 210 kts 229°
2026-05-08 03:43 26.14136 -80.54618 5214 ft 209 kts 192°
2026-05-08 03:43 26.12688 -80.54669 5146 ft 209 kts 180°
2026-05-08 03:43 26.11236 -80.54686 5058 ft 208 kts 181°
2026-05-08 03:44 26.09824 -80.54416 4995 ft 208 kts 152°
2026-05-08 03:44 26.08754 -80.53346 4999 ft 209 kts 127°
2026-05-08 03:44 26.08060 -80.51969 5001 ft 198 kts 108°
2026-05-08 03:44 26.07836 -80.50488 5005 ft 193 kts 90°
2026-05-08 03:45 26.07832 -80.49021 5003 ft 192 kts 89°
2026-05-08 03:45 26.07829 -80.47536 5003 ft 192 kts 89°
2026-05-08 03:45 26.07824 -80.46049 4910 ft 192 kts 89°
2026-05-08 03:45 26.07819 -80.44566 4705 ft 191 kts 89°
2026-05-08 03:46 26.07814 -80.43089 4467 ft 191 kts 89°
2026-05-08 03:46 26.07809 -80.41615 4208 ft 191 kts 89°
2026-05-08 03:46 26.07803 -80.40138 3978 ft 191 kts 90°
2026-05-08 03:46 26.07797 -80.38661 3733 ft 191 kts 89°
2026-05-08 03:47 26.07792 -80.37186 3492 ft 190 kts 90°
2026-05-08 03:47 26.07786 -80.35715 3250 ft 190 kts 90°
2026-05-08 03:47 26.07780 -80.34241 3005 ft 190 kts 90°
2026-05-08 03:47 26.07773 -80.32767 2756 ft 190 kts 90°
2026-05-08 03:48 26.07767 -80.31317 2513 ft 184 kts 90°
2026-05-08 03:48 26.07761 -80.29953 2308 ft 171 kts 90°
2026-05-08 03:48 26.07755 -80.28658 2079 ft 165 kts 90°
2026-05-08 03:48 26.07749 -80.27385 1867 ft 164 kts 90°
2026-05-08 03:49 26.07743 -80.26122 1655 ft 162 kts 90°
2026-05-08 03:49 26.07737 -80.24872 1442 ft 161 kts 91°
2026-05-08 03:49 26.07731 -80.23631 1233 ft 159 kts 91°
2026-05-08 03:49 26.07725 -80.22410 1031 ft 157 kts 91°
2026-05-08 03:50 26.07724 -80.21205 865 ft 155 kts 91°
2026-05-08 03:50 26.07728 -80.20011 710 ft 154 kts 92°
2026-05-08 03:50 26.07702 -80.18835 460 ft 150 kts 92°
2026-05-08 03:50 26.07705 -80.17676 280 ft 149 kts 91°
2026-05-08 03:51 26.07707 -80.16534 87 ft 143 kts 92°
2026-05-08 03:51 26.07702 -80.15525 19 ft 120 kts 95°
2026-05-08 03:51 26.07700 -80.14825 24 ft 47 kts 92°
2026-05-08 03:51 26.07645 -80.14634 24 ft 13 kts 120°
2026-05-08 03:52 26.07634 -80.14616 24 ft 0 kts 123°
2026-05-08 03:52 26.07634 -80.14615 24 ft 2 kts 123°
2026-05-08 03:52 26.07614 -80.14586 25 ft 4 kts 124°
2026-05-08 03:53 26.07590 -80.14532 28 ft 9 kts 130°
2026-05-08 03:53 26.07547 -80.14513 26 ft 0 kts 170°
2026-05-08 03:53 26.07516 -80.14507 27 ft 8 kts 167°
2026-05-08 03:53 26.07454 -80.14491 27 ft 11 kts 175°
2026-05-08 03:54 26.07392 -80.14535 25 ft 8 kts 232°
2026-05-08 03:54 26.07382 -80.14553 25 ft 1 kts 239°
2026-05-08 03:54 26.07371 -80.14574 26 ft 6 kts 238°
2026-05-08 03:54 26.07346 -80.14596 23 ft 0 kts 211°